Location: Cargill Incorporated Elevator
(42.7294°N, 93.7333°W)
Time: 06:10:10
(UTC+00:00)

Cosmos 1862 Rocket - Pass Details

Date: 19 January 2026
Orbit: 596 x 627 km, 82.5° (Epoch: 14 February)

Event Time Altitude Azimuth Distance (km) Brightness Sun altitude
Rises 12:43:51 0° 342° (NNW) 2,869 6.6 -10.4°
Reaches altitude 10° 12:46:13 10° 334° (NNW) 1,955 5.7 -10.0°
Maximum altitude 12:50:07 34° 269° (W) 998 4.1 -9.3°
Drops below altitude 10° 12:53:58 10° 205° (SSW) 1,930 6.1 -8.6°
Sets 12:56:18 0° 195° (SSW) 2,825 7.0 -8.2°
